weather.gov     
National Weather Service

Regional Weather Roundup
NWS Homepage
This page is being discontinued on March 12, 2014.
The same data is available at this site. Please update your bookmarks.
Thank you, and we apologize for the inconvenience.
Please send an email to SR-SRH.Webmaster@noaa.gov with any concerns.


Current Version
Previous Version:    01  02  03  04  05  06  07  08  09  10  11  12  13  14  15  16  17  18  19  20  21  22  23  24  25  26  27  28  29  30  
   31  32  33  34  35  36  37  38  39  40  41  42  43  44  45  46  47  48  49  50  51  52  53  54  55  56  57  58  59  60  
[Printable]
702
ASHW40 PHFO 010043
RWRHI

WEATHER ROUNDUP FOR HAWAII
NATIONAL WEATHER SERVICE HONOLULU HI
200 PM HST SAT JAN 31 2015

THIS IS AN AUTOMATED REPORT THAT HAS NOT BEEN QUALITY CONTROLLED.

NOTE..."FAIR" INDICATES FEW OR NO CLOUDS BELOW 12,000 FEET WITH NO
SIGNIFICANT WEATHER AND/OR OBSTRUCTIONS TO VISIBILITY.

* - THESE SITES REPORT LIMITED FIELDS

HIZ001>004-010100-
KAUAI-NIIHAU-

CITY           SKY/WX    TMP DP  RH WIND       PRES   REMARKS
LIHUE APT      SUNNY     77  57  50 NE10      30.00F
PORT ALLEN*      N/A     81 N/A N/A W14         N/A
POIPU*           N/A     79 N/A N/A E3G9        N/A
PRINCEVILLE*     N/A     75 N/A N/A MISG        N/A
KOKOLE POINT*  NOT AVBL
MOLOAA DAIRY*  NOT AVBL
WAIMEA HTS*      N/A     84  52  32 W7G14       N/A
PUU OPAE*        N/A     70  55  60 W1G12       N/A
PUU LUA*       NOT AVBL
MAKAHA RIDGE*  NOT AVBL
$$

HIZ005>011-010100-
OAHU-

CITY           SKY/WX    TMP DP  RH WIND       PRES   REMARKS
HONOLULU       MOSUNNY   79  66  64 SW9       29.96F
KALAELOA       SUNNY     78  61  55 SW8       29.98F
KANEOHE MCB    MOSUNNY   82  64  54 VRB7      29.97
WHEELER FIELD  PTSUNNY   74  64  72 NW14      29.99F
BELLOWS*         N/A    N/A N/A N/A NE7         N/A
KAHUKU*          N/A    N/A N/A N/A VRB2G8      N/A
WHEELER*       NOT AVBL
WAIANAE HARBOR NOT AVBL
DILLINGHAM*      N/A     75  66  73 MISG        N/A
KAHUKU TRN*      N/A     64  57  77 NE3G12      N/A
KAWAILOA*        N/A     72  64  78 N7          N/A
KII*             N/A     73  64  73 N8          N/A
MAKUA RANGE*     N/A     77  64  65 NE9         N/A
OAHU FOREST NW   N/A    N/A N/A N/A CALM        N/A
SCHOFIELD BRK*   N/A     55  48  76 MISG        N/A
SCHOFIELD S*   NOT AVBL
WAIANAE VLY*     N/A     82  61  47 S5G14       N/A
KUAOKALA*        N/A    N/A N/A N/A CALM        N/A
HONOULIUULI*   NOT AVBL
MOKUOLOE IS*     N/A    N/A N/A N/A MISG        N/A
PALEHUA*         N/A     86  61  42 CALM        N/A
WAIAWA PHB*    NOT AVBL
$$

HIZ012>013-010100-
MOLOKAI-

CITY           SKY/WX    TMP DP  RH WIND       PRES   REMARKS
MOLOKAI AIRPT  PTSUNNY   76  68  76 N10       29.98F
KALAUPAPA      NOT AVBL
MAKAPULAPAI*     N/A     75  68  78 NE6         N/A
MOLOKAI 1*       N/A     77  68  73 S3G12       N/A
PUU ALII*        N/A     64  59  85 W1          N/A
$$

HIZ016-010100-
KAHOOLAWE-

CITY           SKY/WX    TMP DP  RH WIND       PRES   REMARKS
KAHOOLAWE*       N/A     72 N/A N/A SE8         N/A
HAKIOAWA*        N/A     77  69  75 MISG      30.39
HONOKANAIA*      N/A     84  71  63 E9G17     29.99
KANELOA*         N/A     81  72  74 MISG      29.22F
KEALIALALO*    NOT AVBL
LUA MAKIKA*    NOT AVBL
$$

HIZ014>015-010100-
LANAI-

CITY           SKY/WX    TMP DP  RH WIND       PRES   REMARKS
LANAI CITY     CLOUDY    75  66  73 W5        30.02F
LANAI 1*         N/A     64  57  77 S5G12       N/A
$$

HIZ017>028-010100-
MAUI-

CITY           SKY/WX    TMP DP  RH WIND       PRES   REMARKS
KAHULUI        PTSUNNY   81  69  67 N12       29.97F
KAPALUA-W MAUI MOSUNNY   79  68  69 N13       29.98
HANA AIRPORT   CLOUDY    73  72  94 CALM      29.98F FOG
HANA*            N/A     75 N/A N/A E6          N/A
HALEAKALA SUMM   N/A     48  37  66 SW9G24      N/A
MAALAEA BAY*   NOT AVBL
HALEAKALA*     NOT AVBL
KAUPO GAP*       N/A     70  64  83 S3G13       N/A
KULA 1*          N/A     62  50  65 W7G18       N/A
$$

HIZ023>026-010100-
BIG ISLAND OF HAWAII COAST AND LOWER SLOPES-

CITY           SKY/WX    TMP DP  RH WIND       PRES   REMARKS
KAILUA KONA    MOSUNNY   82  68  62 W9        29.95F
HILO           PTSUNNY   83  69  62 E16       29.94F
HONOKAA*       NOT AVBL
KAWAIHAE MWT*    N/A     79 N/A N/A W9          N/A
KAWAIHAE*        N/A     79 N/A N/A W8          N/A
SOUTH POINT*     N/A     77 N/A N/A E10G16      N/A
UPOLU AIRPORT*   N/A    N/A N/A N/A NE10        N/A
KAMUELA*       NOT AVBL
HAKALAU*         N/A     58  54  87 NE3G10      N/A
KALOKO-HONOKO*   N/A     82  68  61 W8        29.94F
PALI 2*          N/A     70  64  83 SE8G14      N/A
KEALAKOMO*       N/A     82  70  65 E6          N/A
KAUPULEHU*       N/A    N/A N/A N/A NW8         N/A
KAPAPALA*        N/A     73  64  73 SE1G10      N/A
LOWER KAHUKU*    N/A     70  63  78 SE3G12      N/A
PUHE CS*         N/A     82  68  61 W5G10       N/A
PUHO CS*         N/A     82  64  54 W5G12       N/A
PTA KEAMUKU*     N/A     70  59  68 CALM        N/A
WAIKOLOA*        N/A     81  63  54 W8G14       N/A
$$

HIZ027>028-010100-
BIG ISLAND OF HAWAII INTERIOR AND SUMMMITS-

CITY           SKY/WX    TMP DP  RH WIND       PRES   REMARKS
BRADSHAW FIELD SUNNY     64  51  61 W7G14     30.28F
MK VISITOR CEN NOT AVBL
MAUNA KEA*       N/A     37   3  23 NW32        N/A  WCI  25
MAUNA LOA*       N/A     48  37  66 MISG        N/A
MAUNA LOA 1*   NOT AVBL
PTA KIPUKA*      N/A     63  54  72 N5G15       N/A
PTA RANGE 17*    N/A     63  52  67 W9G17       N/A
PTA WEST*        N/A     64  57  77 NW7G17      N/A
NENE CABIN*      N/A     57  48  72 SE6G14      N/A
AHUMOA*          N/A     59  50  71 W6G12       N/A
PTA PORTABLE*  NOT AVBL
PUU MALI*      NOT AVBL
$$

HIC003-010100-
NORTHWEST ISLANDS-

CITY           SKY/WX    TMP DP  RH WIND       PRES   REMARKS
MIDWAY ISLAND  SUNNY     66  48  52 SE9       30.03F
MIDWAY NOS*    NOT AVBL
FRENCH FRIGATE NOT AVBL
$$

PHZ110>124-180-010100-
BUOY REPORTS

STATION/POSITION TIME  TEMP    WIND        PRES    WAVE   SWELL
                       AIR SEA DIR/SP/G            HT/PER HT/DIR
                 (UTC) (F)     (DEG/KT/KT) (MB)    (FT/S) (FT/D)
BUOY 51001       NOT AVBL
BUOY 51101       0000   68 72  230/  4/  6 1015.7F  12/13  11/310
BUOY 51100       NOT AVBL
BUOY 51003       0000   76 78   80/ 10/ 12 1014.3F  10/12  10
BUOY 51004       NOT AVBL
BARBERS PT BUOY  NOT AVBL
WAIMEA BAY BUOY  0000      77                N/A    10/14   8/320
KAILUA BAY BUOY  0000      78                N/A     6/12   3/350
LANAI BUOY       0000      78                N/A     4/13   3/270
BARBERS PT 2     0000      78                N/A     6/13   5/320
PAUWELA MAUI     0000      77                N/A     9/13   7/310
HILO             0000      77                N/A     7/12   5/350
KANEOHE BAY BUOY 0000      76                N/A     6/11   3/350
HANALEI KAUAI    NOT AVBL
KAHULUI HARBOR   0000   75 77   10/ 10/ 11 1014.6F
HONOLULU HARBOR  0000   76 76  230/  7/ 10 1014.5F
KILO NALU        NOT AVBL
HILO HARBOR      0000   86 77  100/  7/ 11 1013.5F
MOKUOLOE         0000      75              1015.1F
NAWILIWILI       0000      76                N/A
WHOTS BUOY       NOT AVBL
BUOY 51028       NOT AVBL
$$

......................KEY........................................
  SKY/WX - SKY CONDITIONS/PRESENT WEATHER
  TMP    - TEMPERATURE IN FAHRENHEIT
  DWPT   - DEWPOINT IN FAHRENHEIT
  RH     - RELATIVE HUMIDITY IN PERCENT
  WIND   - DIRECTION AND SPEED /MPH FOR ISLANDS...KTS FOR BUOYS/
  PRES   - MEAN SEA LEVEL PRESSURE IN INCHES OF HG
  VSB    - VISIBILITY IN MILES
  HX     - HEAT INDEX
  WCI    - WIND CHILL INDEX
  VRB    - VARIABLE WIND DIRECTION
  N/A    - NOT AVAILABLE




U.S. Dept. of Commerce
NOAA National Weather Service
1325 East West Highway
Silver Spring, MD 20910
E-mail: w-nws.webmaster@noaa.gov
Page last modified: May 16, 2007
NATIONAL WEATHER SERVICE: for Safety, for Work, for Fun - FOR LIFE